Simultaneous Nadir Overpasses (SNOs) Predictions

Prediction of SNOs between GOES-16 and LANDSAT-8 Satellite Orbit:

Table of predicted SNOs for the next 14.0 days since TLE Epoch: 1/17/2020
Index Date Time (GOES-16) GOES-16 Lat,Lon LANDSAT-8 Lat,Lon Distance(km) Time Diff (sec)
1 01/18/2020 15:12:45 0.00, -75.20 0.05, -75.37 19.61 80
2 01/20/2020 15:03:13 0.00, -75.21 -0.57, -72.41 317.27 80
3 01/21/2020 03:21:57 0.00, -75.20 -0.54, -77.60 274.53 80
4 01/23/2020 03:12:26 0.00, -75.21 0.14, -74.66 63.10 80
5 01/25/2020 03:00:14 -0.01, -75.23 0.77, -71.70 401.36 80
6 01/25/2020 15:18:49 -0.00, -75.24 0.35, -76.85 183.10 80
7 01/27/2020 15:09:17 0.00, -75.27 -0.27, -73.89 156.25 80
8 01/28/2020 03:28:00 0.01, -75.27 -0.83, -79.09 434.80 80
9 01/29/2020 14:57:05 0.01, -75.30 -0.90, -70.94 496.32 80
10 01/30/2020 03:15:49 0.00, -75.30 -0.19, -76.13 94.57 80




NCC Satellite Simultaneous Nadir Overpasses (SNOs) Prediction Service
